Location: Wayah Bald
(35.1806°N, 83.5603°W)
Time: 03:08:37
(UTC-04:00)

Daily predictions for brighter satellites

Satellite Brightness Start Highest point End
(mag) Time Altitude Azimuth Time Altitude Azimuth Time Altitude Azimuth
CZ-4C R/B 4.1 03:40:28 35° NE 03:40:28 35° NE 03:47:15 10° ESE
ATLAS 2AS CENTAUR R/B 4.2 04:00:18 34° N 04:00:18 34° N 04:05:05 10° NNE
Okean O Rocket 4.4 04:15:23 10° NE 04:16:40 16° ENE 04:16:40 16° ENE
Cosmos 2344 3.6 04:26:23 78° ENE 04:26:23 78° ENE 04:34:14 10° NNE
USA 238 DEB 3.9 04:35:03 69° NE 04:35:15 70° ENE 04:42:15 10° SE
USA 238 3.9 04:34:56 67° NE 04:35:21 69° ENE 04:42:20 10° SE
Cosmos 2227 Rocket 3.5 04:35:19 33° ESE 04:35:38 34° ESE 04:40:40 10° NE
Cosmos 1607 4.5 04:38:47 53° E 04:38:47 53° E 04:43:54 10° SE
Cosmos 2297 Rocket 3.9 04:43:33 23° SE 04:45:27 28° ESE 04:50:13 10° NE
Cosmos 2219 Rocket 3.3 04:42:31 10° N 04:47:54 42° ENE 04:53:14 10° SE
CZ-2D R/B 4.0 04:49:11 10° N 04:50:46 19° N 04:50:46 19° N
Lacrosse 5 rocket 3.9 05:01:27 16° N 05:01:27 16° N 05:02:52 10° NNE
ISS -0.2 05:07:45 13° ESE 05:07:45 13° ESE 05:08:12 10° ESE
PAYLOAD B 4.5 05:00:35 10° NNE 05:06:03 64° ESE 05:07:22 49° SSE
Cosmos 2082 3.8 05:12:43 54° SSE 05:13:52 70° ESE 05:19:27 10° NNE
Okean-O 4.5 05:14:22 10° NE 05:18:16 29° E 05:22:07 10° SSE
Meteor 1-19 Rocket 4.5 05:16:23 25° S 05:19:47 67° E 05:25:22 10° NNE
Lacrosse 5 1.7 05:20:28 89° SSE 05:20:29 89° SE 05:25:34 10° NE
Cosmos 2333 Rocket 2.6 05:14:51 10° NNW 05:20:31 61° ENE 05:26:06 10° SSE
Cosmos 1680 Rocket 4.5 05:16:55 10° N 05:22:01 47° ENE 05:27:02 10° SE
ADEOS Rocket 3.6 05:15:01 10° NNE 05:22:07 64° E 05:28:27 10° S
Resurs 1-4 Rocket 4.1 05:22:43 10° NNW 05:24:02 15° NNW 05:24:02 15° NNW
IRS-1C Rocket 4.0 05:22:17 10° N 05:27:31 65° WNW 05:27:45 65° W
NOSS 3-4 (A) 3.4 05:26:19 55° WSW 05:27:40 70° WNW 05:34:09 10° NNE
NOSS 3-4 (C) 3.4 05:26:24 55° WSW 05:27:45 71° WNW 05:34:16 10° NNE
CZ-4C R/B 3.0 05:26:04 34° WNW 05:29:05 52° WSW 05:36:41 10° S
OTV 4 2.7 05:33:36 23° ENE 05:33:36 23° ENE 05:34:51 10° E
Cosmos 1605 Rocket 3.8 05:26:32 10° NNW 05:32:39 70° W 05:38:48 10° S
Cosmos 1934 Rocket 4.2 05:27:31 10° NNW 05:33:06 45° W 05:33:06 45° W
Cosmos 1339 Rocket 4.4 05:32:09 19° S 05:36:55 80° W 05:43:21 10° N
Thor Agena Rocket 3.8 05:35:44 10° SSE 05:40:58 73° ENE 05:46:16 10° N
Meteor 1-23 Rocket 4.5 05:36:21 10° S 05:41:52 68° E 05:47:30 10° NNE
Meteor 2-4 Rocket 3.9 05:37:20 10° S 05:43:04 78° E 05:48:59 10° N
NOSS 0 Rocket 3.8 05:38:14 10° NNW 05:44:29 78° WSW 05:50:41 10° SSE
CZ-4B R/B 3.2 05:40:27 10° N 05:45:44 58° WNW 05:47:54 35° SW
CZ-2C R/B 3.8 05:46:59 51° WSW 05:47:01 51° W 05:51:29 10° NNW
RESURS DK-1 2.2 05:46:43 59° SW 05:47:25 77° WNW 05:51:33 10° NNE
Meteor 1-13 Rocket 4.5 05:47:17 36° SW 05:49:15 49° WNW 05:54:51 10° N
Hubble Space Telescope 2.1 05:50:28 25° S 05:50:28 25° S 05:53:47 10° SE
Cosmos 2237 Rocket 2.1 05:44:50 10° NNW 05:50:30 90° ENE 05:56:07 10° SSE
Cosmos 1666 3.4 05:47:54 10° N 05:51:43 55° E 05:55:28 10° SSE
Tiangong 1 2.1 05:54:38 34° N 05:54:38 34° N 05:57:14 10° NE
Okean O Rocket 2.8 05:51:16 10° NNW 05:54:08 26° NW 05:54:08 26° NW
Gbstr 26 Del rocket 4.4 05:51:16 11° NW 05:58:33 80° SW 06:06:43 10° SE
Cosmos 2061 Rocket 4.3 05:52:52 10° N 05:59:10 72° E 06:05:30 10° SSE
Cosmos 1025 Rocket 3.3 05:59:15 37° WSW 06:00:19 45° W 06:04:30 10° N
DELTA 2 R/B (1) 3.6 05:59:55 30° WSW 06:02:45 78° SSE 06:08:20 10° ENE
BREEZE M DEB (TANK) 4.3 06:01:28 14° NW 06:03:26 20° N 06:08:52 10° NE
Cosmos 1980 3.6 05:58:02 10° NNW 06:03:39 63° WSW 06:09:14 10° S
ATLAS 5 CENTAUR R/B 2.5 05:58:26 10° NNW 06:04:36 83° ENE 06:11:10 10° SSE
Cosmos 1346 Rocket 2.7 06:02:15 22° SSW 06:04:40 64° W 06:08:38 10° N
Cosmos 923 Rocket 4.2 06:00:06 10° NNW 06:05:14 49° WSW 06:10:21 10° S
Cosmos 1802 Rocket 4.2 06:00:11 10° N 06:06:21 72° E 06:12:27 10° SSE
SL-16 R/B 3.0 06:03:01 10° NNW 06:08:36 54° ENE 06:14:07 10° SE
Cosmos 2100 Rocket 3.9 06:02:30 10° N 06:08:45 85° W 06:15:03 10° S
CZ-4B R/B 4.5 06:05:30 10° NNE 06:09:23 55° E 06:13:04 10° S
USA 129 3.7 06:08:58 10° SE 06:10:52 30° ENE 06:12:40 10° N
Cosmos 1606 Rocket 3.5 06:06:48 10° NNW 06:11:07 60° W 06:15:22 10° S
Meteor 2-9 Rocket 4.2 06:06:36 10° N 06:12:15 86° W 06:18:02 10° S
Cosmos 1743 3.6 06:11:06 10° NNW 06:14:09 28° W 06:14:09 28° W
Delta 2 Rocket 2.9 06:17:21 27° W 06:19:13 81° N 06:22:40 10° E
Cosmos 2227 Rocket 3.1 06:17:11 21° W 06:19:38 29° WNW 06:24:32 10° N
NOSS 3-2 (A) 4.1 06:14:08 10° NW 06:21:37 56° WSW 06:29:29 10° S
Cosmos 1726 Rocket 3.6 06:18:41 10° NNW 06:22:58 52° W 06:27:11 10° S
CZ-4B R/B 4.5 06:19:59 10° NNW 06:23:10 20° WNW 06:23:54 19° W
Meteor PRIRODA 3.8 06:19:54 10° N 06:23:31 48° WNW 06:27:05 10° SSW
Cosmos 1898 Rocket 3.5 06:20:37 10° SSW 06:25:55 69° WNW 06:31:14 10° NNE
Cosmos 1602 Rocket 4.0 06:22:47 10° S 06:27:11 65° E 06:31:35 10° NNE
ADEOS II 2.4 06:22:56 10° N 06:27:56 46° WNW 06:32:56 10° SW
Cosmos 1892 Rocket 4.1 06:24:40 10° SSW 06:28:48 37° W 06:32:59 10° N
Cosmos 2297 Rocket 2.9 06:25:25 16° WSW 06:29:19 34° WNW 06:34:26 10° N
Cosmos 2219 Rocket 3.2 06:27:10 10° NW 06:31:30 23° W 06:35:50 10° SSW
Okean 2 4.2 06:32:59 10° SW 06:36:39 30° WNW 06:40:19 10° NNW
NOAA 6 4.0 06:35:29 10° N 06:40:41 82° WNW 06:45:52 10° SSW
Meteor 1-15 Rocket 4.3 06:35:19 10° NNW 06:40:44 55° W 06:46:11 10° S
ISS -1.4 06:40:30 14° WSW 06:41:15 15° SW 06:43:09 10° SSW
Cosmos 1937 Rocket 3.5 06:38:00 10° SSW 06:43:09 67° WNW 06:48:24 10° NNE
COBE Rocket 4.0 06:41:40 10° N 06:46:17 48° WNW 06:50:47 10° SSW
MOS 1 Rocket 3.6 06:42:19 10° N 06:46:54 48° WNW 06:51:45 10° SSW
Cosmos 2016 Rocket 4.0 06:41:00 10° NNW 06:47:15 63° W 06:53:25 10° S
CSL-04 Rocket 4.4 06:44:50 10° NNE 06:50:03 58° ESE 06:55:15 10° S
Meteor 1-31 Rocket 3.3 06:46:35 10° N 06:50:12 37° WNW 06:53:49 10° SW
Cosmos 2173 Rocket 4.4 06:47:41 10° NNW 06:53:14 38° W 06:58:49 10° SSW
NOSS 2-2 (D) 3.4 06:49:44 10° SSW 06:53:45 88° WNW 06:58:16 10° NNE
Okean-O 3.9 06:51:13 10° NNW 06:54:33 21° WNW 06:57:53 10° WSW
Cosmos 1812 Rocket 4.0 06:50:47 10° N 06:55:13 71° E 06:59:40 10° SSE
NOSS 3-2 (C) 4.5 06:51:04 10° NW 06:58:08 40° WSW 07:05:32 10° S
Cosmos 972 Rocket 4.2 06:53:16 10° SSW 06:58:31 81° WNW 07:04:26 10° NNE
Cosmos 2123 Rocket 4.0 06:53:06 10° SSW 06:59:11 60° W 07:05:17 10° N
CENTAUR R/B 3.5 06:55:49 10° NNW 07:03:46 74° ENE 07:12:07 10° SE
